Time,TemperatureF,DewpointF,PressureIn,WindDirection,WindDirectionDegrees,WindSpeedMPH,WindSpeedGustMPH,Humidity,HourlyPrecipIn,Conditions,Clouds,dailyrainin,SoftwareType,DateUTC
2013-04-22 00:02:00,43.0,41.0,30.07,SSE,151,0.0,2.0,92,0.06,,,0.41,,2013-04-22 05:02:00,
2013-04-22 00:12:00,44.0,42.0,30.07,SSE,157,0.0,1.0,92,0.03,,,0.41,,2013-04-22 05:12:00,
2013-04-22 00:22:00,44.0,42.0,30.07,SSE,157,0.0,1.0,92,0.03,,,0.41,,2013-04-22 05:22:00,
2013-04-22 00:32:00,44.0,42.0,30.07,East,100,0.0,0.0,92,0.01,,,0.41,,2013-04-22 05:32:00,
2013-04-22 00:42:00,44.0,42.0,30.07,East,100,0.0,0.0,92,0.01,,,0.41,,2013-04-22 05:42:00,
2013-04-22 00:52:00,44.0,42.0,30.07,SSE,163,0.0,1.0,92,0.01,,,0.41,,2013-04-22 05:52:00,
2013-04-22 01:02:00,44.0,42.0,30.07,South,181,0.0,1.0,92,0.00,,,0.41,,2013-04-22 06:02:00,
2013-04-22 01:12:00,44.0,42.0,30.07,South,181,0.0,1.0,92,0.00,,,0.41,,2013-04-22 06:12:00,
2013-04-22 01:21:00,44.0,42.0,30.07,South,175,0.0,2.0,92,0.00,,,0.41,,2013-04-22 06:21:00,
2013-04-22 01:32:00,45.0,43.0,30.07,SE,136,0.0,2.0,92,0.00,,,0.41,,2013-04-22 06:32:00,
2013-04-22 01:42:00,45.0,43.0,30.07,SE,136,0.0,2.0,92,0.00,,,0.41,,2013-04-22 06:42:00,
2013-04-22 01:51:00,45.0,43.0,30.07,SE,134,0.0,3.0,92,0.00,,,0.41,,2013-04-22 06:51:00,
2013-04-22 02:01:00,45.0,43.0,30.07,SE,126,0.0,1.0,92,0.00,,,0.41,,2013-04-22 07:01:00,
2013-04-22 02:12:00,45.0,43.0,30.07,SE,126,0.0,1.0,92,0.00,,,0.41,,2013-04-22 07:12:00,
2013-04-22 02:21:00,45.0,43.0,30.07,WSW,237,0.0,1.0,92,0.00,,,0.41,,2013-04-22 07:21:00,
2013-04-22 02:32:00,45.0,43.0,30.08,WNW,296,0.0,1.0,92,0.01,,,0.42,,2013-04-22 07:32:00,
2013-04-22 02:42:00,45.0,43.0,30.08,WNW,296,0.0,1.0,92,0.01,,,0.42,,2013-04-22 07:42:00,
2013-04-22 02:52:00,45.0,43.0,30.08,WSW,238,0.0,2.0,92,0.01,,,0.42,,2013-04-22 07:52:00,
2013-04-22 03:01:00,44.0,42.0,30.08,WSW,246,0.0,2.0,92,0.01,,,0.42,,2013-04-22 08:01:00,
2013-04-22 03:11:00,44.0,42.0,30.08,WSW,246,0.0,2.0,92,0.01,,,0.42,,2013-04-22 08:11:00,
2013-04-22 03:22:00,44.0,42.0,30.08,West,262,0.0,1.0,92,0.01,,,0.42,,2013-04-22 08:22:00,
2013-04-22 03:32:00,43.0,41.0,30.08,WSW,248,1.0,2.0,91,0.01,,,0.42,,2013-04-22 08:32:00,
2013-04-22 03:42:00,43.0,41.0,30.08,WSW,248,1.0,2.0,91,0.01,,,0.42,,2013-04-22 08:42:00,
2013-04-22 03:52:00,43.0,41.0,30.08,WSW,252,0.0,2.0,91,0.00,,,0.42,,2013-04-22 08:52:00,
2013-04-22 04:01:00,43.0,41.0,30.08,West,263,0.0,1.0,91,0.01,,,0.43,,2013-04-22 09:01:00,
2013-04-22 04:11:00,43.0,41.0,30.08,West,263,0.0,1.0,91,0.01,,,0.43,,2013-04-22 09:11:00,
2013-04-22 04:21:00,42.0,40.0,30.08,West,261,0.0,1.0,92,0.02,,,0.44,,2013-04-22 09:21:00,
2013-04-22 04:33:00,42.0,40.0,30.09,West,262,0.0,2.0,91,0.02,,,0.44,,2013-04-22 09:33:00,
2013-04-22 04:42:00,42.0,40.0,30.09,West,262,0.0,2.0,91,0.02,,,0.44,,2013-04-22 09:42:00,
2013-04-22 04:52:00,41.0,39.0,30.09,West,261,0.0,0.0,91,0.02,,,0.44,,2013-04-22 09:52:00,
2013-04-22 05:03:00,41.0,39.0,30.10,West,261,0.0,1.0,91,0.01,,,0.45,,2013-04-22 10:03:00,
2013-04-22 05:12:00,41.0,39.0,30.10,West,261,0.0,1.0,91,0.01,,,0.45,,2013-04-22 10:12:00,
2013-04-22 05:22:00,41.0,39.0,30.10,West,262,0.0,0.0,91,0.02,,,0.46,,2013-04-22 10:22:00,
2013-04-22 05:32:00,41.0,39.0,30.10,West,262,0.0,0.0,92,0.02,,,0.46,,2013-04-22 10:32:00,
2013-04-22 05:42:00,41.0,39.0,30.10,West,262,0.0,0.0,92,0.02,,,0.46,,2013-04-22 10:42:00,
2013-04-22 05:52:00,40.0,38.0,30.10,West,262,0.0,0.0,92,0.03,,,0.47,,2013-04-22 10:52:00,
2013-04-22 06:02:00,40.0,38.0,30.10,West,262,0.0,0.0,92,0.02,,,0.47,,2013-04-22 11:02:00,
2013-04-22 06:12:00,40.0,38.0,30.11,West,270,0.0,2.0,91,0.01,,,0.47,,2013-04-22 11:12:00,
2013-04-22 06:22:00,40.0,38.0,30.11,West,270,0.0,2.0,91,0.01,,,0.47,,2013-04-22 11:22:00,
2013-04-22 06:32:00,40.0,38.0,30.11,ENE,61,0.0,0.0,92,0.01,,,0.47,,2013-04-22 11:32:00,
2013-04-22 06:42:00,40.0,38.0,30.11,ENE,61,0.0,0.0,92,0.01,,,0.47,,2013-04-22 11:42:00,
2013-04-22 06:52:00,39.0,37.0,30.12,NNE,16,0.0,1.0,91,0.00,,,0.47,,2013-04-22 11:52:00,
2013-04-22 07:01:00,39.0,37.0,30.12,NNE,20,0.0,2.0,92,0.01,,,0.48,,2013-04-22 12:01:00,
2013-04-22 07:12:00,39.0,37.0,30.13,NE,49,0.0,3.0,91,0.01,,,0.48,,2013-04-22 12:12:00,
2013-04-22 07:21:00,39.0,37.0,30.13,NE,49,0.0,3.0,91,0.01,,,0.48,,2013-04-22 12:21:00,
2013-04-22 07:31:00,39.0,37.0,30.13,NE,40,0.0,2.0,92,0.01,,,0.48,,2013-04-22 12:31:00,
2013-04-22 07:42:00,39.0,37.0,30.13,NE,40,0.0,2.0,92,0.01,,,0.48,,2013-04-22 12:42:00,
2013-04-22 07:52:00,39.0,37.0,30.13,NE,40,0.0,1.0,92,0.01,,,0.48,,2013-04-22 12:52:00,
2013-04-22 08:01:00,39.0,37.0,30.13,NE,40,0.0,1.0,92,0.00,,,0.48,,2013-04-22 13:01:00,
2013-04-22 08:11:00,39.0,37.0,30.13,NE,40,0.0,1.0,92,0.00,,,0.48,,2013-04-22 13:11:00,
2013-04-22 08:22:00,39.0,37.0,30.13,NE,40,0.0,1.0,92,0.00,,,0.48,,2013-04-22 13:22:00,
2013-04-22 08:31:00,38.0,36.0,30.13,NE,36,0.0,2.0,92,0.00,,,0.48,,2013-04-22 13:31:00,
2013-04-22 08:41:00,38.0,36.0,30.13,NE,36,0.0,2.0,92,0.00,,,0.48,,2013-04-22 13:41:00,
2013-04-22 08:52:00,38.0,36.0,30.13,NNE,32,0.0,1.0,92,0.00,,,0.48,,2013-04-22 13:52:00,
2013-04-22 09:02:00,38.0,36.0,30.12,NNE,33,0.0,1.0,92,0.00,,,0.48,,2013-04-22 14:02:00,
2013-04-22 09:11:00,39.0,37.0,30.12,North,5,0.0,3.0,92,0.00,,,0.48,,2013-04-22 14:11:00,
2013-04-22 09:21:00,39.0,37.0,30.12,North,5,0.0,3.0,92,0.00,,,0.48,,2013-04-22 14:21:00,
2013-04-22 09:33:00,39.0,37.0,30.12,North,0,0.0,2.0,92,0.00,,,0.48,,2013-04-22 14:33:00,
2013-04-22 09:42:00,39.0,37.0,30.12,North,0,0.0,2.0,92,0.00,,,0.48,,2013-04-22 14:42:00,
2013-04-22 09:51:00,39.0,37.0,30.11,NNE,15,1.0,3.0,92,0.00,,,0.48,,2013-04-22 14:51:00,
2013-04-22 10:01:00,39.0,37.0,30.12,NNE,23,0.0,2.0,92,0.00,,,0.48,,2013-04-22 15:01:00,
2013-04-22 10:11:00,39.0,37.0,30.12,NNE,23,0.0,2.0,92,0.00,,,0.48,,2013-04-22 15:11:00,
2013-04-22 10:22:00,39.0,37.0,30.11,NNW,335,0.0,2.0,92,0.00,,,0.48,,2013-04-22 15:22:00,
2013-04-22 10:33:00,39.0,37.0,30.12,SSE,150,0.0,0.0,92,0.00,,,0.47,,2013-04-22 15:33:00,
2013-04-22 10:43:00,39.0,37.0,30.12,SSE,150,0.0,0.0,92,0.00,,,0.47,,2013-04-22 15:43:00,
2013-04-22 10:53:00,39.0,37.0,30.12,WNW,292,1.0,3.0,92,0.00,,,0.47,,2013-04-22 15:53:00,
2013-04-22 11:02:00,39.0,37.0,30.13,NNE,13,0.0,3.0,92,0.00,,,0.47,,2013-04-22 16:02:00,
2013-04-22 11:12:00,39.0,37.0,30.13,NNE,13,0.0,3.0,92,0.00,,,0.47,,2013-04-22 16:12:00,
2013-04-22 11:23:00,39.0,37.0,30.13,North,9,0.0,0.0,92,0.00,,,0.47,,2013-04-22 16:23:00,
2013-04-22 11:33:00,39.0,37.0,30.14,North,11,0.0,1.0,92,0.00,,,0.47,,2013-04-22 16:33:00,
2013-04-22 11:42:00,39.0,37.0,30.14,North,11,0.0,1.0,92,0.00,,,0.47,,2013-04-22 16:42:00,
2013-04-22 11:52:00,39.0,37.0,30.13,North,9,1.0,3.0,92,0.00,,,0.47,,2013-04-22 16:52:00,
2013-04-22 12:02:00,39.0,37.0,30.13,North,5,0.0,1.0,92,0.00,,,0.47,,2013-04-22 17:02:00,
2013-04-22 12:12:00,39.0,37.0,30.13,North,5,0.0,1.0,92,0.00,,,0.47,,2013-04-22 17:12:00,
2013-04-22 12:22:00,39.0,37.0,30.13,NNW,327,0.0,1.0,92,0.00,,,0.47,,2013-04-22 17:22:00,
2013-04-22 12:32:00,39.0,37.0,30.12,South,170,0.0,2.0,92,0.00,,,0.47,,2013-04-22 17:32:00,
2013-04-22 12:42:00,39.0,37.0,30.12,South,170,0.0,2.0,92,0.00,,,0.47,,2013-04-22 17:42:00,
2013-04-22 12:51:00,39.0,37.0,30.12,NW,324,1.0,5.0,92,0.00,,,0.46,,2013-04-22 17:51:00,
2013-04-22 13:01:00,39.0,37.0,30.11,NNE,15,0.0,3.0,92,0.00,,,0.44,,2013-04-22 18:01:00,
2013-04-22 13:12:00,39.0,37.0,30.11,NNE,15,0.0,3.0,92,0.00,,,0.44,,2013-04-22 18:12:00,
2013-04-22 13:21:00,39.0,37.0,30.11,NNE,23,1.0,3.0,92,0.00,,,0.43,,2013-04-22 18:21:00,
2013-04-22 13:32:00,39.0,37.0,30.09,NNW,327,1.0,2.0,91,0.00,,,0.42,,2013-04-22 18:32:00,
2013-04-22 13:42:00,39.0,37.0,30.09,NNW,327,1.0,2.0,91,0.00,,,0.42,,2013-04-22 18:42:00,
2013-04-22 13:52:00,39.0,37.0,30.09,NE,36,1.0,3.0,92,0.00,,,0.41,,2013-04-22 18:52:00,
2013-04-22 14:01:00,39.0,37.0,30.08,West,266,0.0,2.0,91,0.00,,,0.40,,2013-04-22 19:01:00,
2013-04-22 14:12:00,39.0,37.0,30.08,West,266,0.0,2.0,91,0.00,,,0.40,,2013-04-22 19:12:00,
2013-04-22 14:21:00,39.0,37.0,30.08,NNW,342,0.0,3.0,91,0.00,,,0.40,,2013-04-22 19:21:00,
2013-04-22 14:32:00,39.0,37.0,30.07,NW,326,0.0,2.0,91,0.00,,,0.40,,2013-04-22 19:32:00,
2013-04-22 14:42:00,39.0,37.0,30.07,NW,326,0.0,2.0,91,0.00,,,0.40,,2013-04-22 19:42:00,
2013-04-22 14:52:00,39.0,37.0,30.06,West,270,0.0,3.0,91,0.00,,,0.40,,2013-04-22 19:52:00,
2013-04-22 15:02:00,39.0,37.0,30.05,WNW,296,0.0,2.0,91,0.00,,,0.40,,2013-04-22 20:02:00,
2013-04-22 15:11:00,39.0,37.0,30.05,WNW,296,0.0,2.0,91,0.00,,,0.40,,2013-04-22 20:11:00,
2013-04-22 15:22:00,39.0,37.0,30.04,SSE,160,0.0,3.0,91,0.00,,,0.40,,2013-04-22 20:22:00,
2013-04-22 15:32:00,39.0,37.0,30.05,WNW,287,0.0,1.0,91,0.02,,,0.42,,2013-04-22 20:32:00,
2013-04-22 15:42:00,39.0,37.0,30.05,WNW,287,0.0,1.0,91,0.02,,,0.42,,2013-04-22 20:42:00,
2013-04-22 15:51:00,39.0,37.0,30.03,WNW,287,0.0,0.0,91,0.05,,,0.45,,2013-04-22 20:51:00,
2013-04-22 16:02:00,39.0,37.0,30.03,WNW,286,0.0,0.0,92,0.06,,,0.46,,2013-04-22 21:02:00,
2013-04-22 16:11:00,39.0,37.0,30.02,NNW,338,0.0,0.0,92,0.06,,,0.46,,2013-04-22 21:11:00,
2013-04-22 16:21:00,39.0,37.0,30.02,NNW,338,0.0,0.0,92,0.06,,,0.46,,2013-04-22 21:21:00,
2013-04-22 16:32:00,39.0,37.0,30.02,NNW,338,0.0,0.0,92,0.07,,,0.49,,2013-04-22 21:32:00,
2013-04-22 16:42:00,39.0,37.0,30.02,NNW,338,0.0,0.0,92,0.07,,,0.49,,2013-04-22 21:42:00,
2013-04-22 16:53:00,39.0,37.0,30.01,NNW,334,0.0,0.0,92,0.06,,,0.51,,2013-04-22 21:53:00,
2013-04-22 17:02:00,39.0,37.0,30.01,West,275,0.0,0.0,92,0.06,,,0.52,,2013-04-22 22:02:00,
2013-04-22 17:12:00,39.0,37.0,30.01,West,275,0.0,0.0,92,0.06,,,0.52,,2013-04-22 22:12:00,
2013-04-22 17:22:00,39.0,37.0,30.00,North,5,0.0,3.0,92,0.07,,,0.54,,2013-04-22 22:22:00,
2013-04-22 17:33:00,39.0,37.0,30.00,NNE,21,1.0,3.0,92,0.07,,,0.56,,2013-04-22 22:33:00,
2013-04-22 17:42:00,39.0,37.0,30.00,NNE,21,1.0,3.0,92,0.07,,,0.56,,2013-04-22 22:42:00,
2013-04-22 17:52:00,39.0,37.0,30.00,North,9,1.0,6.0,92,0.11,,,0.62,,2013-04-22 22:52:00,
2013-04-22 18:02:00,39.0,37.0,30.02,NNE,24,0.0,3.0,92,0.11,,,0.63,,2013-04-22 23:02:00,
2013-04-22 18:11:00,39.0,37.0,30.00,NE,43,3.0,7.0,92,0.14,,,0.68,,2013-04-22 23:11:00,
2013-04-22 18:21:00,39.0,37.0,30.00,NE,43,3.0,7.0,92,0.14,,,0.68,,2013-04-22 23:21:00,
2013-04-22 18:32:00,39.0,37.0,29.98,NE,41,1.0,3.0,92,0.12,,,0.70,,2013-04-22 23:32:00,
2013-04-22 18:42:00,39.0,37.0,29.98,NE,41,1.0,3.0,92,0.12,,,0.70,,2013-04-22 23:42:00,
2013-04-22 18:52:00,39.0,37.0,29.98,North,10,2.0,5.0,92,0.10,,,0.72,,2013-04-22 23:52:00,
2013-04-22 19:00:00,39.0,37.0,29.98,North,0,0.0,2.0,92,0.07,,,0.75,,2013-04-23 00:00:00,
2013-04-22 19:02:00,39.0,37.0,29.99,North,349,1.0,3.0,92,0.10,,,0.73,,2013-04-23 00:02:00,
2013-04-22 19:12:00,39.0,37.0,29.99,North,349,1.0,3.0,92,0.10,,,0.73,,2013-04-23 00:12:00,
2013-04-22 19:21:00,39.0,37.0,29.98,North,0,0.0,2.0,92,0.07,,,0.75,,2013-04-23 00:21:00,
2013-04-22 19:31:00,39.0,37.0,29.98,North,0,0.0,2.0,92,0.07,,,0.75,,2013-04-23 00:31:00,
2013-04-22 19:42:00,39.0,37.0,29.98,North,0,0.0,2.0,92,0.07,,,0.75,,2013-04-23 00:42:00,
2013-04-22 19:52:00,39.0,37.0,29.98,North,0,0.0,2.0,92,0.07,,,0.75,,2013-04-23 00:52:00,